Вернуться в каталог

STARLINK-5315

АктивенСвязьVLEO
NORAD 55309·PAYLOAD·🇺🇸 United States

Запущен Jan 19, 2023 с Vandenberg Space Force Base

Loading…

Ближайшие Пролёты (ближайшие 24 часа)

TLE

СвежийSource: CelesTrak SupGP

Эпоха: Sep 14, 2026, 21:17 UTC

1 55309C 23010AS  26257.88729167  .00059029  00000+0  49456-2 0  2579
2 55309  70.0003 247.2764 0003657 265.6486 172.1554 14.98309217    14

Отслеживайте STARLINK-5315 в реальном времени с AllMySat

Download on the App Store